Weather in Rassvet

Russia / Tyumen Oblast     56°32′14″N   65°44′03″E
temp.,
°C
wind,
m/s
gust,
m/s
humid.,
%
clouds,
%
prec.,
mm/h
press.,
hPa
HPBL,
m
23 september, thu
thu2323:00+4nne229096 0.4 102553
02:00+2n229598 0.0 102633
05:00+1n339550 0.0 102759
08:00+2n25885 0.0 1028177
11:00+7n346488 0.0 10291040
14:00+7n4562100 0.0 10291169
17:00+7nnw3460100 0.1 1029523
20:00+6ssw1163100 0.0 102911
24 september, fri
fri2423:00+6sw2365100 0.0 103057
02:00+3wnw11815 0.0 103010
05:00+2wsw338714 0.0 103028
08:00+4wsw367881 0.0 1031173
11:00+10wsw4552100 0.0 1030848
14:00+12wsw3442100 0.0 10281207
17:00+12wsw234760 0.0 1027133
20:00+7sw22618 0.0 102713
25 september, sat
sat2523:00+6sw2267100 0.0 102710
02:00+5wsw22709 0.0 102619
05:00+3s2272100 0.0 102612
08:00+6nw01670 0.0 102637
11:00+11ne22500 0.0 1025520
14:00+14ene33450 0.0 10241091
17:00+12ene45535 0.0 1024809
20:00+6ene411645 0.0 1025241
26 september, sun
sun2623:00+4e4117019 0.0 1026297
02:00+1e37785 0.0 1027150
05:000ene498022 0.0 1027165
08:00+2e4106912 0.0 1028315
11:00+7e67475 0.0 10281017
14:00+9e68385 0.0 10271354
17:00+8e684310 0.0 10271392
20:00+4e6135911 0.0 1028490
27 september, mon
mon2723:00+1ene612715 0.0 1029418
02:000ene511815 0.0 1029366
05:00−1ne512865 0.0 1029279
08:00+1ne5127177 0.0 1030474
11:00+5ene71051100 0.0 10291521
14:00+6ene6851100 0.0 10301629
17:00+5ne6857100 0.0 10301423
20:00+4ne51063100 0.0 1031695